This demonstration page uses our WeatherBlox Daily Observations layout. Learn more.

39.51506, -84.39828

Hourly Observations for November 6, 2019

Temp ( °F °C ) Dew Point ( °F °C ) Humidity (%) Winds ( mph kmh ) Pressure ( in mb ) Visibility ( mi km ) Precip ( " mm )
12:15 am 00:15 Clear 30 -1.1 29 -1.4 98 98 Calm 30.43 1030 7 11.26538 0 0
12:35 am 00:35 Clear with Mist and Fog 30 -1.2 29 -1.4 99 99 Calm 30.44 1031 3 4.82802 0 0
12:55 am 00:55 Clear with Mist and Fog 30 -1.3 29 -1.5 99 99 Calm 30.44 1031 7 11.26538 0 0
1:15 am 01:15 Clear with Mist and Fog 29 -1.6 29 -1.8 99 99 Calm 30.44 1031 3.5 5.63269 0 0
1:35 am 01:35 Mostly Cloudy with Mist and Fog 29 -1.8 28 -2 99 99 Calm 30.46 1032 1 1.60934 0 0
1:55 am 01:55 Mostly Cloudy with Mist and Fog 28 -2.1 28 -2.3 99 99 Calm 30.47 1032 1.25 2.011675 0 0
2:15 am 02:15 Clear with Mist and Fog 28 -2.1 28 -2.2 99 99 Calm 30.47 1032 5 8.0467 0 0
2:35 am 02:35 Clear 28 -2.4 27 -2.6 99 99 Calm 30.46 1032 7 11.26538 0 0
2:55 am 02:55 Clear with Mist and Fog 29 -1.6 29 -1.8 99 99 NW 3 6 30.47 1032 5 8.0467 0 0
3:15 am 03:15 Clear with Mist and Fog 27 -2.6 27 -2.9 98 98 Calm 30.48 1032 7 11.26538 0 0
3:35 am 03:35 Clear with Mist and Fog 28 -2.2 28 -2.4 99 99 Calm 30.48 1032 7 11.26538 0 0
3:55 am 03:55 Clear 28 -2.4 27 -2.8 97 97 Calm 30.47 1032 10 16.0934 0 0
4:15 am 04:15 Mostly Cloudy 28 -2.2 28 -2.5 98 98 Calm 30.48 1032 7 11.26538 0 0
4:35 am 04:35 Clear 28 -2.4 27 -2.7 98 98 Calm 30.48 1032 7 11.26538 0 0
4:55 am 04:55 Clear with Mist and Fog 28 -2.3 28 -2.5 99 99 Calm 30.47 1032 4 6.43736 0 0
5:15 am 05:15 Clear with Mist and Fog 28 -2.1 28 -2.4 98 98 Calm 30.48 1032 7 11.26538 0 0
5:35 am 05:35 Clear 29 -1.6 28 -2 97 97 Calm 30.48 1032 10 16.0934 0 0
5:55 am 05:55 Clear 29 -1.6 28 -2.1 96 96 Calm 30.48 1032 10 16.0934 0 0
6:15 am 06:15 Clear 30 -0.9 29 -1.4 96 96 Calm 30.49 1032 7 11.26538 0 0
6:35 am 06:35 Clear 31 -0.8 30 -1.3 96 96 Calm 30.48 1032 7 11.26538 0 0
6:55 am 06:55 Clear 31 -0.6 30 -1.2 96 96 Calm 30.48 1032 7 11.26538 0 0
7:15 am 07:15 Sunny with Mist and Fog 31 -0.4 30 -0.9 96 96 Calm 30.5 1033 5 8.0467 0 0
7:35 am 07:35 Sunny with Mist and Fog 31 -0.4 31 -0.8 97 97 Calm 30.51 1033 5 8.0467 0 0
7:55 am 07:55 Partly Cloudy with Mist and Fog 32 -0.1 31 -0.6 96 96 Calm 30.51 1033 7 11.26538 0 0
8:15 am 08:15 Partly Cloudy with Mist and Fog 32 0.2 31 -0.3 96 96 Calm 30.51 1033 7 11.26538 0 0
8:35 am 08:35 Mostly Cloudy 34 1.1 33 0.5 96 96 Calm 30.5 1033 7 11.26538 0 0
8:55 am 08:55 Sunny 36 2.1 34 1.1 93 93 Calm 30.51 1033 7 11.26538 0 0
9:15 am 09:15 Sunny 38 3.4 35 1.5 88 88 Calm 30.5 1033 10 16.0934 0 0
9:35 am 09:35 Sunny 41 5.1 31 -0.3 68 68 SE 3 6 30.49 1033 10 16.0934 0 0
9:55 am 09:55 Sunny 43 6.3 32 -0.2 63 63 SSE 5 7 30.47 1032 10 16.0934 0 0
10:15 am 10:15 Sunny 45 7.2 29 -1.8 53 53 SE 7 11 30.47 1032 10 16.0934 0 0
10:35 am 10:35 Sunny 46 7.9 29 -1.7 51 51 SE 8 13 30.45 1031 10 16.0934 0 0
10:55 am 10:55 Sunny 47 8.3 29 -1.5 50 50 SSE 8 13 30.44 1031 10 16.0934 0 0
11:15 am 11:15 Sunny 48 8.7 29 -1.5 49 49 SSE 8 13 30.44 1031 10 16.0934 0 0
11:35 am 11:35 Sunny 50 9.9 30 -1.1 47 47 SSE 8 13 30.43 1030 10 16.0934 0 0
11:55 am 11:55 Sunny 50 10.2 29 -1.4 45 45 S 10 17 30.42 1030 10 16.0934 0 0
12:15 pm 12:15 Sunny 51 10.6 31 -0.8 45 45 S 8 13 30.41 1030 10 16.0934 0 0
12:35 pm 12:35 Partly Cloudy 52 11 30 -1.1 43 43 S 6 9 30.4 1029 10 16.0934 0 0
12:55 pm 12:55 Partly Cloudy 53 11.8 29 -1.4 40 40 SE 6 9 30.37 1029 10 16.0934 0 0
1:15 pm 13:15 Mostly Cloudy 53 11.5 29 -1.6 40 40 S 6 9 30.36 1028 10 16.0934 0 0
1:35 pm 13:35 Mostly Cloudy 53 11.7 28 -2.1 38 38 SSW 9 15 30.34 1028 10 16.0934 0 0
1:55 pm 13:55 Mostly Cloudy 53 11.6 29 -1.8 40 40 S 9 15 30.34 1027 10 16.0934 0 0
2:15 pm 14:15 Partly Cloudy 54 12.1 29 -1.5 39 39 SSW 8 13 30.32 1027 10 16.0934 0 0
2:35 pm 14:35 Partly Cloudy 54 12.1 30 -1.1 40 40 SSW 10 17 30.31 1027 10 16.0934 0 0
2:55 pm 14:55 Partly Cloudy 54 12.2 30 -1.2 40 40 SSW 8 13 30.3 1026 10 16.0934 0 0
3:15 pm 15:15 Partly Cloudy 55 12.6 31 -0.7 40 40 S 7 11 30.3 1026 10 16.0934 0 0
3:35 pm 15:35 Partly Cloudy 55 13 30 -0.9 39 39 SW 9 15 30.29 1026 10 16.0934 0 0
3:55 pm 15:55 Cloudy 55 12.8 31 -0.6 40 40 SW 9 15 30.29 1026 10 16.0934 0 0
4:15 pm 16:15 Cloudy 54 12.4 33 0.5 44 44 SSW 9 15 30.29 1026 10 16.0934 0 0
4:35 pm 16:35 Cloudy 54 12.1 33 0.8 46 46 SSW 8 13 30.29 1026 10 16.0934 0 0
4:55 pm 16:55 Cloudy 53 11.8 34 1.1 48 48 SSW 8 13 30.28 1026 10 16.0934 0 0
5:15 pm 17:15 Cloudy 53 11.6 34 1.2 49 49 S 7 11 30.29 1026 10 16.0934 0 0
5:35 pm 17:35 Cloudy 53 11.7 34 1.2 49 49 S 8 13 30.27 1025 10 16.0934 0 0
5:55 pm 17:55 Cloudy 53 11.6 34 1.3 50 50 S 8 13 30.27 1025 10 16.0934 0 0
6:15 pm 18:15 Cloudy with Light Rain 53 11.5 35 1.8 52 52 S 8 13 30.28 1025 10 16.0934 0 0
6:35 pm 18:35 Cloudy 53 11.5 35 1.9 52 52 S 6 9 30.28 1025 10 16.0934 0 0
6:55 pm 18:55 Cloudy 52 11.1 36 2.2 55 55 SW 3 6 30.28 1025 10 16.0934 0 0
7:15 pm 19:15 Cloudy 51 10.6 36 2.2 56 56 S 7 11 30.28 1025 10 16.0934 0 0
7:35 pm 19:35 Cloudy 52 11 36 2 54 54 SSW 3 6 30.27 1025 10 16.0934 0 0
7:55 pm 19:55 Cloudy 51 10.7 37 2.6 58 58 SSW 5 7 30.27 1025 10 16.0934 0 0
8:15 pm 20:15 Cloudy 51 10.6 37 2.8 59 59 SSW 5 7 30.26 1025 10 16.0934 0 0
8:35 pm 20:35 Cloudy 51 10.8 37 2.5 57 57 SW 5 7 30.26 1025 10 16.0934 0 0
8:55 pm 20:55 Cloudy with Light Rain 51 10.4 38 3.5 63 63 SSW 6 9 30.26 1025 10 16.0934 0 0
9:15 pm 21:15 Cloudy with Light Rain 49 9.3 41 5 75 75 Calm 30.25 1024 10 16.0934 0 0
9:35 pm 21:35 Cloudy 48 8.8 43 6.3 84 84 Calm 30.25 1024 10 16.0934 0 0
9:55 pm 21:55 Cloudy 48 8.7 44 6.8 88 88 Calm 30.24 1024 10 16.0934 0 0
10:15 pm 22:15 Cloudy with Light Rain 47 8.4 45 7.2 92 92 Calm 30.24 1024 10 16.0934 0 0
10:35 pm 22:35 Cloudy with Light Rain 47 8.5 45 7.4 93 93 Calm 30.23 1024 10 16.0934 0 0
10:55 pm 22:55 Cloudy with Light Rain 47 8.5 45 7.4 93 93 Calm 30.23 1024 10 16.0934 0 0
11:15 pm 23:15 Cloudy with Light Rain 47 8.6 45 7.3 92 92 Calm 30.23 1024 10 16.0934 0 0
11:35 pm 23:35 Cloudy with Light Rain 47 8.4 45 7.3 93 93 WSW 3 6 30.23 1024 7 11.26538 0 0
11:55 pm 23:55 Cloudy with Light Rain 47 8.4 44 6.7 89 89 SW 5 7 30.23 1024 10 16.0934 0 0

Powered by AerisWeather